Location: Newark
(9.4667°S, 159.8167°E)
Time: 12:44:52
(UTC+00:00)

Courier 1B Rocket - Pass Details

Date: 20 November 2019
Orbit: 920 x 1202 km, 28.2° (Epoch: 05 December)

Event Time Altitude Azimuth Distance (km) Brightness Sun altitude
Rises 23:46:25 0° 258° (WSW) 3,551 7.8 68.1°
Reaches altitude 10° 23:49:15 10° 268° (W) 2,611 7.2 68.7°
Maximum altitude 23:54:45 32° 330° (NNW) 1,537 6.3 69.8°
Drops below altitude 10° 00:00:26 10° 32° (NNE) 2,694 7.5 71.0°
Sets 00:03:26 0° 41° (NE) 3,680 8.0 71.6°
